Regional Weather Roundup
Issued by NWS

Home | Current Version | Previous Version | Graphics & Text | Print | Product List | Glossary Off
Versions: 1 2 3 4 5 6 7 8 9 10 11 12 13 14 15 16 17 18 19 20 21 22 23 24 25 26 27 28 29 30 31 32 33 34 35 36 37 38 39 40 41 42 43 44 45 46 47 48 49 50

000
ASUS43 KLMK 282302
RWRKY
KENTUCKY REGIONAL WEATHER ROUNDUP
NATIONAL WEATHER SERVICE LOUISVILLE KY
600 PM EST FRI NOV 28 2014

NOTE "FAIR" INDICATES FEW OR NO CLOUDS BELOW 12,000 FEET
WITH NO SIGNIFICANT WEATHER AND/OR OBSTRUCTIONS TO VISIBILITY.

KYZ001>023-026-027-061>063-070>075-290000-
WESTERN AND SOUTH CENTRAL KENTUCKY

CITY           SKY/WX    TMP DP  RH WIND       PRES   REMARKS
PADUCAH        CLEAR     45  27  49 S7        30.09F
HENDERSON      CLEAR     41  27  56 SE9       30.10F
OWENSBORO      CLEAR     40  27  60 S12       30.13F WCI  33
HOPKINSVILLE   CLEAR     45  24  43 SE7       30.15F
BOWLING GREEN  CLEAR     40  20  44 SE7       30.20F
GLASGOW        NOT AVBL
$$

KYZ024-025-028>034-038-045-046-053-290000-
NORTH CENTRAL KENTUCKY

CITY           SKY/WX    TMP DP  RH WIND       PRES   REMARKS
LOUISVILLE/SDF PTCLDY    37  21  52 SE9       30.17F WCI  30
LOUISVILLE/LOU CLEAR     37  20  50 SE7       30.18F WCI  32
FORT KNOX      CLEAR     36  22  58 SE8       30.15F WCI  30
$$

KYZ035>037-039>044-047>052-055>060-089>105-290000-
NORTHEAST KENTUCKY

CITY           SKY/WX    TMP DP  RH WIND       PRES   REMARKS
LEXINGTON      CLEAR     32  18  56 SE7       30.21F WCI  26
COVINGTON      MOCLDY    32  15  49 SE12      30.17F WCI  23
FRANKFORT      CLEAR     34  18  52 SE8       30.19F WCI  27
$$

KYZ054-064>069-076>088-106>120-290000-
SOUTHEAST KENTUCKY

CITY           SKY/WX    TMP DP  RH WIND       PRES   REMARKS
JACKSON        PTCLDY    32  16  51 S3        30.22F
LONDON         CLEAR     36  17  46 CALM      30.22F
SOMERSET       NOT AVBL
MIDDLESBORO    NOT AVBL
MONTICELLO     CLEAR     38  19  46 SE5       30.24F WCI  34
$$



USA.gov is the U.S. government's official web portal to all federal, state and local government web resources and services.